Location: Focicchia
(42.2496°N, 9.2935°E)
Time: 06:16:29
(UTC+00:00)

X-37B - Pass Details

Date: 02 August 2021
Orbit: 381 x 393 km, 45.0° (Epoch: 29 August)

Event Time Altitude Azimuth Distance (km) Brightness Sun altitude
Exits shadow 02:35:52 30° 170° (S) 719 1.6 -16.2°
Maximum altitude 02:36:21 31° 150° (SSE) 689 1.7 -16.1°
Drops below altitude 10° 02:39:11 10° 85° (E) 1,397 4.2 -15.8°
Sets 02:41:23 0° 75° (ENE) 2,253 5.6 -15.5°
